IZ1CYF-3 Weather Reports


time (UTC)temp
C
wind
direction
speed
KPH
gust
KPH
rain 1hr
cm
rain 24hr
cm
rain mn
cm
humidity
%
barometer
mb
20260507070158 12 0.0 0.0 0.00 0.00 0.00 61 1015.6
20260507063158 12 0.0 0.0 0.00 0.00 0.00 62 1015.5
20260507060158 12 0.0 0.0 0.00 0.00 0.00 62 1015.2
20260507053158 12 0.0 0.0 0.00 0.00 0.00 65 1015.0
20260507050158 10 0.0 0.0 0.00 0.00 0.00 66 1015.3
20260507043158 10 0.0 0.0 0.00 0.00 0.00 66 1014.9
20260507040158 11 0.0 0.0 0.00 0.00 0.00 65 1014.5
20260507033158 10 0.0 0.0 0.00 0.00 0.00 66 1014.9
20260507030158 10 0.0 0.0 0.00 0.00 0.00 65 1014.7
20260507023158 10 0.0 0.0 0.00 0.00 0.00 68 1015.1
20260507020158 11 0.0 0.0 0.00 0.00 0.00 65 1014.2
20260507013158 12 0.0 0.0 0.00 0.00 0.00 66 1014.0
20260507010158 12 0.0 0.0 0.00 0.00 0.00 65 1013.7
20260507003158 11 0.0 0.0 0.00 0.00 0.00 68 1014.3
20260507000159 12 0.0 0.0 0.00 0.00 0.00 63 1013.7
20260506233158 13 0.0 0.0 0.00 0.00 0.00 60 1013.5
20260506230159 12 0.0 0.0 0.00 0.00 0.00 63 1013.7
20260506223158 12 0.0 0.0 0.00 0.00 0.00 58 1013.2
20260506220158 13 0.0 0.0 0.00 0.00 0.00 59 1012.9
20260506213158 13 0.0 0.0 0.00 0.00 0.00 60 1012.6
20260506210159 12 0.0 0.0 0.00 0.00 0.00 61 1012.9
20260506203158 11 0.0 0.0 0.00 0.00 0.00 61 1013.2
20260506200158 12 0.0 0.0 0.00 0.00 0.00 57 1012.5
20260506193158 12 0.0 0.0 0.00 0.00 0.00 55 1011.6
20260506190158 13 0.0 0.0 0.00 0.00 0.00 52 1010.8
20260506183158 15 0.0 0.0 0.00 0.00 0.00 46 1009.5
20260506180158 15 0.0 0.0 0.00 0.00 0.00 42 1008.6
20260506173158 17 0.0 0.0 0.00 0.00 0.00 40 1007.7
20260506170159 16 0.0 0.0 0.00 0.00 0.00 40 1007.4